Weather in Le Gosier

Guadeloupe     16°12′22″N   61°29′41″W
temp.,
°C
wind,
m/s
gust,
m/s
humid.,
%
clouds,
%
prec.,
mm/h
press.,
hPa
HPBL,
m
17 april, sat
sat1723:00+26ese576760 0.0 1016552
02:00+26ese576717 0.0 1014614
05:00+25ese4670100 0.0 1015449
08:00+27se576692 0.0 10171167
11:00+29se6757100 0.0 10181153
14:00+29se6760100 0.0 10161113
17:00+27se5665100 0.0 10151020
20:00+26ese47745 0.0 1017510
18 april, sun
sun1823:00+25e47730 0.0 1018502
02:00+25ese477377 0.1 1016443
05:00+24ese477389 0.0 1016429
08:00+26ese68636 0.0 10181306
11:00+29ese785716 0.0 10181352
14:00+29se68586 0.0 10161248
17:00+27ese57642 0.0 10161106
20:00+25ese466916 0.0 1018462
19 april, mon
mon1923:00+25e577310 0.0 1019573
02:00+26e686817 0.3 1017736
05:00+25e586793 0.1 1017735
08:00+26e686830 0.3 10191000
11:00+27ese686095 0.1 10191411
14:00+29e68542 0.1 10171388
17:00+27e67635 0.1 10161233
20:00+25e477117 0.1 1018524
20 april, tue
tue2023:00+25e58735 0.1 1019569
02:00+24e58755 0.4 1017510
05:00+24e59756 0.2 1017566
08:00+26e796695 0.7 10191211
11:00+28e8961100 0.6 10191432
14:00+29e785794 0.9 10171505
17:00+27e7965100 1.2 10171264
20:00+25e68756 1.8 1018649
21 april, wed
wed2123:00+25e697235 1.2 1018654
02:00+25e696780 1.3 1016750
05:00+25e697215 0.1 1016704
08:00+26e797129 1.3 10181074
11:00+28ese810580 1.3 10181464
14:00+29ese68592 1.3 10161416
17:00+27e576723 0.3 10151152
20:00+25e697414 2.6 1017642